Regional Weather Roundup
Issued by NWS

Home | Current Version | Previous Version | Text Only | Print | Product List | Glossary Off
Versions: 1 2 3 4 5 6 7 8 9 10 11 12 13 14 15 16 17 18 19 20 21 22 23 24 25 26 27 28 29 30 31 32 33 34 35 36 37 38 39 40 41 42 43 44 45 46 47 48 49 50

000
ASUS43 KMKX 221821
RWRWI

WISCONSIN REGIONAL WEATHER ROUNDUP
NATIONAL WEATHER SERVICE MILWAUKEE/SULLIVAN WI
100 PM CDT MON SEP 22 2014

NOTE: "FAIR" INDICATES FEW OR NO CLOUDS BELOW 12,000 FEET WITH NO
SIGNIFICANT WEATHER AND/OR OBSTRUCTIONS TO VISIBILITY.

WIZ001-002-006>008-014>016-023>028-221900-
NORTHWEST WISCONSIN

CITY           SKY/WX    TMP DP  RH WIND       PRES   REMARKS
SUPERIOR ARPT  SUNNY     69  54  57 SW8       30.16F
6HR MIN TEMP:  43; 6HR MAX TEMP:  69;

ASHLAND        MOSUNNY   67  51  56 SW10      30.18F
6HR MIN TEMP:  46; 6HR MAX TEMP:  67;

HAYWARD        MOSUNNY   64  49  57 VRB7      30.21F
6HR MIN TEMP:  37; 6HR MAX TEMP:  64;

SIREN          SUNNY     66  51  57 NW7G16    30.22F
6HR MIN TEMP:  39; 6HR MAX TEMP:  66;

RICE LAKE      MOSUNNY   64  50  60 W6        30.23F
6HR MIN TEMP:  40; 6HR MAX TEMP:  64;

LADYSMITH      MOSUNNY   62  51  67 W6        30.24F
6HR MIN TEMP:  38; 6HR MAX TEMP:  62;

EAU CLAIRE     PTSUNNY   66  51  58 W12       30.24F
6HR MIN TEMP:  42; 6HR MAX TEMP:  66;

MENOMONIE      PTCLDY    67  50  55 W9G16     30.24F
6HR MIN TEMP:  42; 6HR MAX TEMP:  67;

NEW RICHMOND   SUNNY     67  50  54 NW6       30.24F
6HR MIN TEMP:  42; 6HR MAX TEMP:  67;

OSCEOLA        SUNNY     66  52  59 NW5       30.26F
6HR MIN TEMP:  42; 6HR MAX TEMP:  67;

$$

WIZ003>005-009-010-017-018-221900-
NORTH CENTRAL WISCONSIN

CITY           SKY/WX    TMP DP  RH WIND       PRES   REMARKS
WOODRUFF       MOSUNNY   62  49  61 W13       30.20S
6HR MIN TEMP:  42; 6HR MAX TEMP:  62;

RHINELANDER    MOSUNNY   63  47  55 W13       30.21S
6HR MIN TEMP:  36; 6HR MAX TEMP:  63;

EAGLE RIVER    PTSUNNY   60  46  59 W5        30.18S
6HR MIN TEMP:  35; 6HR MAX TEMP:  62;

LAND O LAKES   MOSUNNY   61  47  58 W8G16     30.18F
6HR MIN TEMP:  38; 6HR MAX TEMP:  63; 6HR PCP:  0.06;

PHILLIPS       MOSUNNY   60  49  68 W5        30.21F
6HR MIN TEMP:  36; 6HR MAX TEMP:  60;

TOMAHAWK       PTSUNNY   61  46  58 W12       30.21F
6HR MIN TEMP:  33; 6HR MAX TEMP:  62;

MEDFORD        CLOUDY    59  48  67 W9        30.22F
6HR MIN TEMP:  35; 6HR MAX TEMP:  60;

MERRILL        CLOUDY    62  49  62 W12       30.22S
6HR MIN TEMP:  33; 6HR MAX TEMP:  63;

$$

WIZ029-030-035-036-043>047-221900-
CENTRAL WISCONSIN

CITY           SKY/WX    TMP DP  RH WIND       PRES   REMARKS
WAUSAU         CLOUDY    63  46  54 W17       30.21F
6HR MIN TEMP:  39; 6HR MAX TEMP:  63;

MOSINEE        CLOUDY    63  48  59 W9G18     30.24F
MARSHFIELD     PTSUNNY   64  49  57 NW10      30.23F
6HR MIN TEMP:  41; 6HR MAX TEMP:  64;

STEVENS POINT  CLOUDY    61  46  56 W8        30.23F
6HR MIN TEMP:  33; 6HR MAX TEMP:  62;

WAUPACA        MOSUNNY   68  46  45 W9        30.23F
6HR MIN TEMP:  39; 6HR MAX TEMP:  68;

WAUTOMA        MOSUNNY   67  47  48 W8        30.24F
6HR MIN TEMP:  36; 6HR MAX TEMP:  67;

WISC RAPIDS    CLOUDY    65  47  52 W8        30.25F
6HR MIN TEMP:  37; 6HR MAX TEMP:  66;

CAMP DOUGLAS   MOSUNNY   66  50  55 NW12      30.25F
$$

WIZ011>013-019>022-031-037>040-048>050-221900-
NORTHEAST WISCONSIN

CITY           SKY/WX    TMP DP  RH WIND       PRES   REMARKS
ANTIGO         PTSUNNY   63  48  59 W10G18    30.21F
6HR MIN TEMP:  33; 6HR MAX TEMP:  63;

STURGEON BAY   MOSUNNY   63  46  55 W12       30.19F
6HR MIN TEMP:  39; 6HR MAX TEMP:  63;

GREEN BAY      MOSUNNY   66  45  46 W10       30.21F
6HR MIN TEMP:  38; 6HR MAX TEMP:  67;

MANITOWOC      MOSUNNY   64  47  53 NW10      30.22F
6HR MIN TEMP:  38; 6HR MAX TEMP:  64;

APPLETON       PTSUNNY   64  45  48 W8        30.23F
CLINTONVILLE   CLOUDY    64  45  48 W10       30.21F
OSHKOSH        MOSUNNY   66  47  50 VRB3      30.23F
6HR MIN TEMP:  43; 6HR MAX TEMP:  66;

$$

WIZ032>034-041-042-053>061-221900-
SOUTHWEST WISCONSIN

CITY           SKY/WX    TMP DP  RH WIND       PRES   REMARKS
LA CROSSE      MOSUNNY   69  50  50 NW12      30.25F
6HR MIN TEMP:  48; 6HR MAX TEMP:  69;

SPARTA         PTSUNNY   65  48  54 NW6       30.26F
6HR MIN TEMP:  34; 6HR MAX TEMP:  67;

VIROQUA        FAIR      65  49  56 W12       30.28S
6HR MIN TEMP:  44; 6HR MAX TEMP:  65;

BOSCOBEL       SUNNY     67  49  52 SW9       30.28F
6HR MIN TEMP:  45; 6HR MAX TEMP:  67;

PRAIRIE DU CHI SUNNY     66  47  49 SW7       30.28F
6HR MIN TEMP:  47; 6HR MAX TEMP:  66;

PLATTEVILLE    FAIR      65  46  50 W9G16     30.29F
6HR MIN TEMP:  41; 6HR MAX TEMP:  65;

$$

WIZ056-057-062-063-064-067-068-221900-
SOUTH CENTRAL WISCONSIN

CITY           SKY/WX    TMP DP  RH WIND       PRES   REMARKS
BARABOO/DELLS  MOSUNNY   66  46  48 W8        30.26F
6HR MIN TEMP:  38; 6HR MAX TEMP:  66;

LONE ROCK      SUNNY     69  48  47 W13       30.27F
6HR MIN TEMP:  44; 6HR MAX TEMP:  69;

WATERTOWN      SUNNY     65  45  47 W8G20     30.26S
6HR MIN TEMP:  37; 6HR MAX TEMP:  65;

MADISON        MOSUNNY   65  44  46 W8        30.26F
6HR MIN TEMP:  39; 6HR MAX TEMP:  65;

MIDDLETON      FAIR      66  45  45 W9        30.27F
6HR MIN TEMP:  39; 6HR MAX TEMP:  66;

MONROE         SUNNY     63  43  48 W3        30.28F
JANESVILLE     SUNNY     64  41  42 W6        30.28S
$$

WIZ051-052-058>065-066-070>072-221900-
SOUTHEAST WISCONSIN

CITY           SKY/WX    TMP DP  RH WIND       PRES   REMARKS
MILWAUKEE      MOSUNNY   64  42  44 NW6       30.26F
6HR MIN TEMP:  42; 6HR MAX TEMP:  64;

WAUKESHA       SUNNY     63  43  48 W7        30.27F
MILWAUKEE/TIMM SUNNY     63  39  42 W6        30.27S
RACINE         SUNNY     63  43  48 VRB3      30.28F
6HR MIN TEMP:  42; 6HR MAX TEMP:  63;

BURLINGTON     SUNNY     63  40  43 NW6       30.27S
6HR MIN TEMP:  33; 6HR MAX TEMP:  63;

KENOSHA        SUNNY     63  44  50 VRB7      30.27F
6HR MIN TEMP:  40; 6HR MAX TEMP:  64;

FOND DU LAC    SUNNY     65  45  48 W9        30.24F
6HR MIN TEMP:  39; 6HR MAX TEMP:  65;

SHEBOYGAN      SUNNY     65  44  46 W10       30.23F
6HR MIN TEMP:  36; 6HR MAX TEMP:  65;

WEST BEND      MOSUNNY   63  43  48 NW9       30.25S
JUNEAU         SUNNY     63  45  51 SW6       30.26F
6HR MIN TEMP:  36; 6HR MAX TEMP:  63;

$$

LSZ147-162-221900-
LAKE SUPERIOR

STATION/POSITION TIME  TEMP    WIND        PRES    WAVE
                       AIR SEA DIR/SP/G            HT/PER
                 (UTC) (F)     (DEG/KT/KT) (MB)    (FT/S)
W MID LAKE BUOY  1750   51 47  230/ 16/ 17 1019.9F   2/ 3
DEVILS ISLAND    1800   57     230/ 14/ 17 1020.5F
PORT WING        1700   62     240/  9/ 13 1022.0
SAXON HARBOR     1700   63     250/  4/ 12 1022.4F
$$

LMZ867-665-643>646-221900-
LAKE MICHIGAN

STATION/POSITION TIME  TEMP    WIND        PRES    WAVE
                       AIR SEA DIR/SP/G            HT/PER
                 (UTC) (F)     (DEG/KT/KT) (MB)    (FT/S)
N MID LAKE BUOY  1750   54 57  230/ 16/ 17 1021.4F   2/ 3
NORTHPORT PIER   1700   59     240/  4/ 10 1021.7F
KEWAUNEE LAKESHO 1800   64     280/  4/ 10 1021.8F
SHEBOYGAN LAKESH 1800   62 53  300/  6/ 10 1024.0F
PORT WASHINGTON  1700   64     320/  7/ 13 1024.7F
ATWATER BUOY     1800   61     360/  4/  6 1025.3F
MILWAUKEE LAKESH 1800   62     320/  4/ 10   N/A
S MID LAKE BUOY  1750   55 62  260/  8/ 10 1025.4F   3/ 7
KENOSHA   LAKESH 1800   58     140/  8/ 10 1024.7F
$$

TC  - TEMPERATURE IN CELSIUS
VSB - VISIBILITY IN STATUTE MILES
WCI - WIND CHILL INDEX
HX  - HEAT INDEX



USA.gov is the U.S. government's official web portal to all federal, state and local government web resources and services.